Location: Stara Lesna
(49.1528°N, 20.2911°E)
Time: 09:49:04
(UTC+02:00)

Cosmos 1812 - Pass Details

Date: 13 July 2020
Orbit: 516 x 522 km, 82.5° (Epoch: 05 August)

Event Time Altitude Azimuth Distance (km) Brightness Sun altitude
Rises 00:20:33 0° 352° (N) 2,658 8.0 -18.8°
Reaches altitude 10° 00:22:44 10° 356° (N) 1,763 6.7 -18.9°
Maximum altitude 00:26:34 62° 78° (ENE) 587 2.9 -18.9°
Enters shadow 00:27:29 45° 135° (SE) 711 3.0 -18.9°
